This is the latest recevied weather packets stored in our database for station/object KD4MBW. If no packets are shown the sender has not sent any weather packets the latest 10 day(s).
| Time | Temp. | Humidity | Pressure | Rain* | Wind** | Luminosity | Snow |
|---|---|---|---|---|---|---|---|
| 1787613928 | 30° C | 87% | 1015.1 hPa | 0 mm | - | 29 W/m² | - |
| 1787613624 | 30° C | 87% | 1015.1 hPa | 0 mm | - | 34 W/m² | - |
| 1787613323 | 30° C | 86% | 1014.9 hPa | 0 mm | - | 39 W/m² | - |
| 1787613020 | 30° C | 85% | 1015.6 hPa | 0 mm | - | 47 W/m² | - |
| 1787612716 | 30.56° C | 84% | 1015.3 hPa | 0 mm | - | 52 W/m² | - |
| 1787612413 | 30° C | 85% | 1015.3 hPa | 0 mm | - | 54 W/m² | - |
| 1787612108 | 30.56° C | 85% | 1015.3 hPa | 0 mm | - | 52 W/m² | - |
| 1787611803 | 30.56° C | 84% | 1015.3 hPa | 0 mm | - | 71 W/m² | - |
| 1787611500 | 30.56° C | 84% | 1015.2 hPa | 0 mm | - | 80 W/m² | - |
| 1787611195 | 30.56° C | 83% | 1015 hPa | 0 mm | - | 86 W/m² | - |
| 1787610890 | 30.56° C | 84% | 1014.7 hPa | 0 mm | - | 88 W/m² | - |
| 1787610586 | 30.56° C | 84% | 1014.6 hPa | 0 mm | - | 89 W/m² | - |
| 1787610281 | 30.56° C | 84% | 1014.4 hPa | 0 mm | - | 92 W/m² | - |
| 1787609980 | 30.56° C | 84% | 1014.5 hPa | 0 mm | - | 96 W/m² | - |
| 1787609679 | 30.56° C | 83% | 1014.5 hPa | 0 mm | - | 102 W/m² | - |
| 1787609374 | 30.56° C | 83% | 1014.4 hPa | 0 mm | - | 111 W/m² | - |
| 1787609074 | 30.56° C | 84% | 1014.3 hPa | 0 mm | - | 120 W/m² | - |
| 1787608768 | 30.56° C | 83% | 1014.2 hPa | 0 mm | - | 128 W/m² | - |
| 1787608463 | 30.56° C | 83% | 1014.4 hPa | 0 mm | - | 137 W/m² | - |
| 1787608159 | 30.56° C | 83% | 1014.3 hPa | 0 mm | - | 140 W/m² | - |
| 1787607856 | 30.56° C | 82% | 1014.2 hPa | 0 mm | - | 140 W/m² | - |
| 1787607553 | 30.56° C | 83% | 1014.2 hPa | 0 mm | - | 145 W/m² | - |
| 1787607249 | 30.56° C | 82% | 1014.2 hPa | 0 mm | - | 160 W/m² | - |
| 1787606945 | 30.56° C | 83% | 1014.3 hPa | 0 mm | - | 196 W/m² | - |
| 1787606643 | 31.11° C | 83% | 1014.2 hPa | 0 mm | - | 231 W/m² | - |
* Rain latest hour (hover to see other rain measurements)
** Current wind speed in m/s (hover to see current wind gust speed)